N2889W PAVD-CYPR

Flight info

Callsign N2889W
Flight time N/A
Altitude 27000
Route JOH J501 BKA J195 ANN Q902 HANRY
Aircraft BE60/L-SDFGRY/C

Departure

Time 2026-04-27 21:20
Airport Valdez Pioneer Field (PAVD)

Arrival

Time N/A
Airport Prince Rupert Airport (CYPR)
Time Latitude Longitude Altitude Speed Heading
2026-04-27 21:09 61.13184 -146.24512 82 ft 0 kts 350°
2026-04-27 21:16 61.13185 -146.24513 84 ft 0 kts 350°
2026-04-27 21:16 61.13189 -146.24511 84 ft 2 kts 19°
2026-04-27 21:16 61.13204 -146.24481 83 ft 4 kts 49°
2026-04-27 21:16 61.13231 -146.24416 86 ft 7 kts 48°
2026-04-27 21:17 61.13278 -146.24367 89 ft 9 kts 354°
2026-04-27 21:17 61.13350 -146.24393 92 ft 12 kts 351°
2026-04-27 21:17 61.13432 -146.24360 97 ft 13 kts 66°
2026-04-27 21:17 61.13445 -146.24143 96 ft 18 kts 86°
2026-04-27 21:18 61.13458 -146.23858 99 ft 21 kts 84°
2026-04-27 21:18 61.13473 -146.23533 100 ft 24 kts 85°
2026-04-27 21:18 61.13486 -146.23212 110 ft 22 kts 85°
2026-04-27 21:18 61.13495 -146.22908 120 ft 20 kts 86°
2026-04-27 21:19 61.13540 -146.22778 123 ft 15 kts 345°
2026-04-27 21:19 61.13542 -146.22835 121 ft 0 kts 262°
2026-04-27 21:19 61.13497 -146.23458 104 ft 84 kts 262°
2026-04-27 21:20 61.13279 -146.26531 959 ft 113 kts 256°
2026-04-27 21:20 61.13098 -146.28127 1470 ft 114 kts 257°
2026-04-27 21:20 61.12937 -146.29743 1883 ft 115 kts 258°
2026-04-27 21:20 61.12783 -146.31374 2332 ft 116 kts 259°
2026-04-27 21:21 61.12631 -146.32993 2958 ft 116 kts 258°
2026-04-27 21:21 61.12476 -146.34649 3598 ft 115 kts 254°
2026-04-27 21:21 61.12224 -146.36170 4106 ft 112 kts 229°
2026-04-27 21:21 61.11702 -146.37330 4645 ft 110 kts 222°
2026-04-27 21:22 61.11205 -146.38534 5169 ft 110 kts 225°
2026-04-27 21:22 61.10705 -146.39814 5481 ft 128 kts 225°
2026-04-27 21:22 61.10070 -146.41404 5499 ft 156 kts 225°
2026-04-27 21:22 61.09331 -146.43217 5500 ft 172 kts 225°
2026-04-27 21:23 61.08528 -146.45154 5491 ft 181 kts 225°
2026-04-27 21:23 61.07693 -146.47164 5487 ft 186 kts 225°
2026-04-27 21:23 61.06771 -146.49005 5470 ft 186 kts 221°
2026-04-27 21:23 61.05949 -146.51108 5492 ft 189 kts 230°
2026-04-27 21:24 61.05153 -146.53238 5509 ft 191 kts 227°
2026-04-27 21:24 61.04285 -146.55344 5520 ft 194 kts 225°
2026-04-27 21:24 61.03393 -146.57456 5490 ft 195 kts 225°
2026-04-27 21:24 61.02499 -146.59557 5455 ft 197 kts 225°
2026-04-27 21:25 61.01585 -146.61739 5453 ft 204 kts 226°
2026-04-27 21:25 61.00601 -146.63879 5449 ft 208 kts 223°
2026-04-27 21:25 60.99625 -146.66087 5441 ft 210 kts 228°
2026-04-27 21:25 60.98705 -146.68456 5480 ft 213 kts 226°
2026-04-27 21:26 60.97730 -146.70767 5469 ft 213 kts 225°
2026-04-27 21:26 60.96748 -146.73035 5467 ft 211 kts 224°
2026-04-27 21:26 60.95802 -146.75269 5476 ft 209 kts 226°
2026-04-27 21:26 60.94868 -146.77535 5476 ft 205 kts 222°
2026-04-27 21:27 60.93742 -146.79253 5475 ft 199 kts 204°
2026-04-27 21:27 60.92452 -146.80155 5478 ft 195 kts 189°
2026-04-27 21:27 60.91111 -146.80270 5482 ft 193 kts 174°
2026-04-27 21:27 60.89812 -146.79620 5485 ft 192 kts 165°
2026-04-27 21:28 60.88512 -146.78946 5488 ft 192 kts 169°
2026-04-27 21:28 60.87200 -146.78394 5477 ft 193 kts 169°
2026-04-27 21:28 60.85897 -146.77798 5424 ft 190 kts 167°
2026-04-27 21:28 60.84625 -146.77233 5460 ft 189 kts 167°
2026-04-27 21:29 60.83336 -146.76777 5432 ft 188 kts 176°
2026-04-27 21:29 60.82053 -146.76418 5521 ft 186 kts 169°
2026-04-27 21:29 60.80790 -146.75793 5548 ft 185 kts 163°
2026-04-27 21:29 60.79590 -146.75016 5730 ft 178 kts 163°
2026-04-27 21:30 60.78409 -146.74312 5843 ft 175 kts 165°
2026-04-27 21:30 60.77231 -146.73698 5972 ft 174 kts 167°
2026-04-27 21:30 60.76054 -146.73128 6107 ft 173 kts 168°
2026-04-27 21:30 60.74877 -146.72573 6246 ft 173 kts 168°
2026-04-27 21:31 60.73700 -146.72015 6393 ft 173 kts 168°
2026-04-27 21:31 60.72525 -146.71445 6542 ft 174 kts 168°
2026-04-27 21:31 60.71340 -146.70890 6664 ft 175 kts 167°
2026-04-27 21:31 60.70167 -146.70312 6803 ft 176 kts 168°
2026-04-27 21:32 60.68972 -146.69764 6944 ft 176 kts 169°
2026-04-27 21:32 60.67773 -146.69206 7077 ft 177 kts 169°
2026-04-27 21:32 60.66572 -146.68634 7267 ft 177 kts 169°
2026-04-27 21:32 60.65365 -146.68061 7502 ft 179 kts 169°
2026-04-27 21:33 60.64145 -146.67493 7769 ft 180 kts 169°
2026-04-27 21:33 60.62922 -146.66917 8043 ft 181 kts 169°
2026-04-27 21:33 60.61696 -146.66341 8259 ft 181 kts 169°
2026-04-27 21:33 60.60463 -146.65761 8413 ft 182 kts 170°
2026-04-27 21:34 60.59222 -146.65176 8525 ft 183 kts 169°
2026-04-27 21:34 60.57982 -146.64590 8655 ft 183 kts 170°
2026-04-27 21:34 60.56736 -146.64003 8791 ft 184 kts 170°
2026-04-27 21:34 60.55485 -146.63416 8932 ft 185 kts 170°
2026-04-27 21:35 60.54229 -146.62826 9079 ft 186 kts 170°
2026-04-27 21:35 60.52980 -146.62240 9223 ft 186 kts 170°
2026-04-27 21:35 60.51712 -146.61646 9359 ft 187 kts 170°
2026-04-27 21:35 60.50446 -146.61049 9521 ft 187 kts 169°
2026-04-27 21:36 60.49237 -146.60011 9670 ft 193 kts 153°
2026-04-27 21:36 60.48236 -146.58131 9815 ft 201 kts 134°
2026-04-27 21:36 60.47606 -146.55537 9957 ft 213 kts 111°
2026-04-27 21:36 60.47383 -146.52531 10108 ft 215 kts 107°
2026-04-27 21:37 60.47078 -146.49576 10266 ft 214 kts 111°
2026-04-27 21:37 60.46721 -146.46653 10422 ft 214 kts 112°
2026-04-27 21:37 60.46363 -146.43763 10571 ft 214 kts 111°
2026-04-27 21:37 60.46010 -146.40826 10705 ft 215 kts 110°
2026-04-27 21:38 60.45665 -146.37879 10894 ft 215 kts 110°
2026-04-27 21:38 60.45322 -146.34914 11078 ft 216 kts 110°
2026-04-27 21:38 60.44983 -146.31945 11255 ft 217 kts 110°
2026-04-27 21:38 60.44644 -146.28960 11414 ft 217 kts 110°
2026-04-27 21:39 60.44306 -146.25976 11576 ft 218 kts 110°
2026-04-27 21:39 60.43967 -146.22974 11785 ft 218 kts 110°
2026-04-27 21:39 60.43627 -146.19975 11983 ft 219 kts 110°
2026-04-27 21:39 60.43288 -146.16966 12151 ft 220 kts 110°
2026-04-27 21:40 60.42946 -146.13948 12301 ft 220 kts 110°
2026-04-27 21:40 60.42600 -146.10910 12419 ft 223 kts 111°
2026-04-27 21:40 60.42248 -146.07858 12437 ft 228 kts 111°
2026-04-27 21:40 60.41887 -146.04712 12442 ft 230 kts 111°
2026-04-27 21:41 60.41524 -146.01548 12434 ft 231 kts 110°
2026-04-27 21:41 60.41159 -145.98365 12437 ft 232 kts 110°
2026-04-27 21:41 60.40793 -145.95168 12445 ft 234 kts 110°
2026-04-27 21:41 60.40423 -145.91959 12447 ft 235 kts 110°
2026-04-27 21:42 60.40050 -145.88735 12445 ft 236 kts 111°
2026-04-27 21:42 60.39675 -145.85492 12460 ft 238 kts 111°
2026-04-27 21:42 60.39293 -145.82207 12461 ft 241 kts 111°
2026-04-27 21:42 60.38905 -145.78895 12456 ft 243 kts 111°
2026-04-27 21:43 60.38513 -145.75556 12447 ft 245 kts 110°
2026-04-27 21:43 60.38124 -145.72238 12419 ft 246 kts 111°
2026-04-27 21:43 60.37730 -145.68877 12420 ft 246 kts 111°
2026-04-27 21:43 60.37338 -145.65519 12428 ft 245 kts 111°
2026-04-27 21:44 60.36945 -145.62165 12427 ft 245 kts 111°
2026-04-27 21:44 60.36553 -145.58821 12432 ft 244 kts 111°
2026-04-27 21:44 60.36160 -145.55487 12431 ft 243 kts 111°
2026-04-27 21:44 60.35770 -145.52180 12435 ft 241 kts 111°
2026-04-27 21:45 60.35380 -145.48892 12439 ft 240 kts 111°
2026-04-27 21:45 60.34992 -145.45624 12448 ft 240 kts 111°
2026-04-27 21:45 60.34600 -145.42348 12451 ft 239 kts 111°
2026-04-27 21:45 60.34209 -145.39084 12451 ft 239 kts 111°
2026-04-27 21:46 60.33817 -145.35823 12449 ft 239 kts 111°
2026-04-27 21:46 60.33430 -145.32606 12448 ft 239 kts 111°
2026-04-27 21:46 60.33037 -145.29344 12449 ft 239 kts 111°
2026-04-27 21:46 60.32643 -145.26089 12448 ft 239 kts 112°
2026-04-27 21:47 60.32250 -145.22835 12450 ft 239 kts 112°
2026-04-27 21:47 60.31855 -145.19585 12454 ft 239 kts 112°
2026-04-27 21:47 60.31458 -145.16324 12469 ft 240 kts 112°
2026-04-27 21:47 60.31055 -145.13040 12471 ft 242 kts 112°
2026-04-27 21:48 60.30648 -145.09729 12463 ft 244 kts 111°
2026-04-27 21:48 60.30240 -145.06398 12454 ft 245 kts 111°
2026-04-27 21:48 60.29832 -145.03077 12436 ft 245 kts 111°
2026-04-27 21:48 60.29421 -144.99719 12445 ft 246 kts 111°
2026-04-27 21:49 60.29009 -144.96371 12452 ft 246 kts 111°
2026-04-27 21:49 60.28594 -144.93017 12454 ft 247 kts 111°
2026-04-27 21:49 60.28178 -144.89661 12452 ft 248 kts 111°
2026-04-27 21:49 60.27760 -144.86292 12453 ft 248 kts 111°
2026-04-27 21:50 60.27340 -144.82915 12451 ft 248 kts 111°
2026-04-27 21:50 60.26921 -144.79547 12448 ft 247 kts 111°
2026-04-27 21:50 60.26510 -144.76243 12453 ft 246 kts 111°
2026-04-27 21:50 60.26094 -144.72910 12455 ft 245 kts 111°
2026-04-27 21:51 60.25677 -144.69580 12458 ft 244 kts 111°
2026-04-27 21:51 60.25260 -144.66266 12459 ft 244 kts 111°
2026-04-27 21:51 60.24843 -144.62954 12461 ft 243 kts 111°
2026-04-27 21:51 60.24424 -144.59649 12474 ft 244 kts 111°
2026-04-27 21:52 60.24000 -144.56321 12473 ft 245 kts 112°
2026-04-27 21:52 60.23574 -144.52990 12470 ft 246 kts 112°
2026-04-27 21:52 60.23151 -144.49653 12469 ft 246 kts 111°
2026-04-27 21:52 60.22731 -144.46347 12465 ft 247 kts 112°
2026-04-27 21:53 60.22304 -144.43004 12467 ft 247 kts 112°
2026-04-27 21:53 60.21876 -144.39658 12468 ft 247 kts 112°
2026-04-27 21:53 60.21444 -144.36302 12455 ft 248 kts 111°
2026-04-27 21:53 60.21009 -144.32937 12459 ft 248 kts 110°
2026-04-27 21:54 60.20574 -144.29569 12459 ft 249 kts 110°
2026-04-27 21:54 60.20139 -144.26190 12466 ft 250 kts 110°
2026-04-27 21:54 60.19700 -144.22805 12459 ft 250 kts 111°
2026-04-27 21:54 60.19258 -144.19426 12457 ft 249 kts 111°
2026-04-27 21:55 60.18822 -144.16057 12461 ft 249 kts 110°
2026-04-27 21:55 60.18385 -144.12687 12465 ft 249 kts 111°
2026-04-27 21:55 60.17948 -144.09329 12466 ft 248 kts 111°
2026-04-27 21:55 60.17515 -144.06018 12467 ft 248 kts 111°
2026-04-27 21:56 60.17076 -144.02675 12473 ft 248 kts 111°
2026-04-27 21:56 60.16192 -143.95972 12473 ft 249 kts 111°
2026-04-27 21:56 60.15746 -143.92602 12464 ft 249 kts 111°
2026-04-27 21:57 60.15301 -143.89237 12458 ft 249 kts 111°
2026-04-27 21:57 60.14858 -143.85895 12457 ft 248 kts 111°
2026-04-27 21:57 60.14414 -143.82551 12457 ft 247 kts 111°
2026-04-27 21:57 60.13970 -143.79216 12469 ft 247 kts 111°
2026-04-27 21:58 60.13525 -143.75885 12469 ft 247 kts 111°
2026-04-27 21:58 60.13079 -143.72557 12469 ft 247 kts 111°
2026-04-27 21:58 60.12639 -143.69274 12461 ft 247 kts 111°
2026-04-27 21:58 60.12191 -143.65949 12470 ft 247 kts 111°
2026-04-27 21:59 60.11743 -143.62623 12469 ft 247 kts 111°
2026-04-27 21:59 60.11293 -143.59298 12464 ft 247 kts 111°
2026-04-27 21:59 60.10843 -143.55965 12464 ft 247 kts 111°
2026-04-27 21:59 60.10391 -143.52637 12463 ft 247 kts 111°
2026-04-27 22:00 60.09941 -143.49321 12472 ft 246 kts 111°
2026-04-27 22:00 60.09489 -143.46002 12469 ft 246 kts 111°
2026-04-27 22:00 60.09039 -143.42695 12472 ft 246 kts 111°
2026-04-27 22:00 60.08587 -143.39394 12474 ft 246 kts 111°
2026-04-27 22:01 60.08134 -143.36093 12469 ft 246 kts 111°
2026-04-27 22:01 60.07681 -143.32790 12479 ft 246 kts 111°
2026-04-27 22:01 60.07224 -143.29476 12490 ft 248 kts 111°
2026-04-27 22:01 60.06771 -143.26193 12475 ft 248 kts 111°
2026-04-27 22:02 60.06311 -143.22865 12473 ft 247 kts 111°
2026-04-27 22:02 60.05852 -143.19551 12476 ft 247 kts 111°
2026-04-27 22:02 60.05393 -143.16239 12475 ft 247 kts 111°
2026-04-27 22:02 60.04932 -143.12917 12487 ft 247 kts 111°
2026-04-27 22:03 60.04469 -143.09598 12483 ft 248 kts 111°
2026-04-27 22:03 60.04005 -143.06277 12479 ft 247 kts 111°
2026-04-27 22:03 60.03541 -143.02963 12459 ft 247 kts 111°
2026-04-27 22:03 60.03081 -142.99671 12477 ft 246 kts 111°
2026-04-27 22:04 60.02619 -142.96375 12478 ft 245 kts 111°
2026-04-27 22:04 60.02163 -142.93136 12480 ft 245 kts 111°
2026-04-27 22:04 60.01700 -142.89859 12480 ft 245 kts 111°
2026-04-27 22:04 60.01237 -142.86583 12480 ft 245 kts 111°
2026-04-27 22:05 60.00773 -142.83312 12483 ft 245 kts 111°
2026-04-27 22:05 60.00310 -142.80044 12484 ft 244 kts 111°
2026-04-27 22:05 59.99844 -142.76770 12484 ft 244 kts 111°
2026-04-27 22:05 59.99379 -142.73507 12484 ft 244 kts 111°
2026-04-27 22:06 59.98912 -142.70238 12484 ft 244 kts 111°
2026-04-27 22:06 59.98446 -142.66979 12484 ft 244 kts 111°
2026-04-27 22:06 59.97977 -142.63711 12494 ft 245 kts 111°
2026-04-27 22:06 59.97505 -142.60432 12497 ft 246 kts 111°
2026-04-27 22:07 59.97030 -142.57140 12485 ft 247 kts 111°
2026-04-27 22:07 59.96715 -142.54956 12482 ft 247 kts 111°
2026-04-27 22:07 59.96241 -142.51664 12482 ft 247 kts 111°
2026-04-27 22:07 59.95610 -142.47306 12488 ft 247 kts 111°
2026-04-27 22:08 59.95133 -142.44021 12488 ft 246 kts 111°
2026-04-27 22:08 59.94658 -142.40744 12487 ft 246 kts 111°
2026-04-27 22:08 59.94336 -142.38531 12489 ft 245 kts 111°
2026-04-27 22:08 59.93858 -142.35265 12479 ft 245 kts 111°
2026-04-27 22:09 59.93380 -142.31992 12486 ft 246 kts 111°
2026-04-27 22:09 59.92906 -142.28758 12490 ft 247 kts 111°
2026-04-27 22:09 59.92425 -142.25474 12491 ft 247 kts 111°
2026-04-27 22:09 59.91941 -142.22188 12494 ft 247 kts 111°
2026-04-27 22:10 59.91457 -142.18899 12496 ft 247 kts 111°
2026-04-27 22:10 59.90970 -142.15606 12499 ft 248 kts 111°
2026-04-27 22:10 59.90482 -142.12304 12498 ft 249 kts 111°
2026-04-27 22:10 59.89991 -142.08993 12502 ft 250 kts 111°
2026-04-27 22:11 59.89498 -142.05678 12500 ft 251 kts 111°
2026-04-27 22:11 59.89001 -142.02338 12496 ft 251 kts 111°
2026-04-27 22:11 59.88503 -141.99000 12487 ft 251 kts 111°
2026-04-27 22:11 59.88005 -141.95665 12488 ft 250 kts 111°
2026-04-27 22:12 59.87516 -141.92388 12490 ft 249 kts 111°
2026-04-27 22:12 59.87021 -141.89088 12493 ft 249 kts 111°
2026-04-27 22:12 59.86527 -141.85794 12496 ft 248 kts 111°
2026-04-27 22:12 59.86032 -141.82507 12496 ft 248 kts 112°
2026-04-27 22:13 59.85535 -141.79216 12494 ft 248 kts 112°
2026-04-27 22:13 59.85038 -141.75929 12494 ft 248 kts 112°
2026-04-27 22:13 59.84542 -141.72651 12495 ft 247 kts 112°
2026-04-27 22:13 59.84050 -141.69414 12497 ft 248 kts 111°
2026-04-27 22:14 59.83549 -141.66116 12504 ft 249 kts 111°
2026-04-27 22:14 59.83045 -141.62814 12507 ft 250 kts 111°
2026-04-27 22:14 59.82538 -141.59494 12507 ft 251 kts 111°
2026-04-27 22:14 59.82030 -141.56179 12500 ft 251 kts 111°
2026-04-27 22:15 59.81522 -141.52855 12505 ft 251 kts 111°
2026-04-27 22:15 59.81011 -141.49532 12506 ft 252 kts 111°
2026-04-27 22:15 59.80500 -141.46207 12503 ft 252 kts 111°
2026-04-27 22:15 59.79988 -141.42883 12506 ft 252 kts 111°
2026-04-27 22:16 59.79475 -141.39560 12503 ft 252 kts 111°
2026-04-27 22:16 59.78959 -141.36230 12506 ft 252 kts 111°
2026-04-27 22:16 59.78443 -141.32904 12506 ft 252 kts 111°
2026-04-27 22:16 59.77925 -141.29569 12504 ft 252 kts 111°
2026-04-27 22:17 59.77408 -141.26244 12499 ft 252 kts 111°
2026-04-27 22:17 59.76890 -141.22918 12500 ft 252 kts 112°
2026-04-27 22:17 59.76376 -141.19632 12503 ft 252 kts 112°
2026-04-27 22:17 59.75856 -141.16310 12509 ft 252 kts 112°
2026-04-27 22:18 59.75335 -141.12989 12506 ft 252 kts 112°
2026-04-27 22:18 59.74812 -141.09662 12508 ft 252 kts 112°
2026-04-27 22:18 59.74289 -141.06342 12507 ft 252 kts 112°
2026-04-27 22:18 59.73764 -141.03017 12502 ft 253 kts 111°
2026-04-27 22:19 59.73237 -140.99679 12507 ft 254 kts 111°
2026-04-27 22:19 59.72706 -140.96329 12506 ft 255 kts 111°
2026-04-27 22:19 59.72171 -140.92960 12515 ft 257 kts 111°
2026-04-27 22:19 59.71633 -140.89578 12513 ft 259 kts 111°
2026-04-27 22:20 59.71089 -140.86162 12507 ft 261 kts 111°
2026-04-27 22:20 59.70540 -140.82721 12510 ft 262 kts 111°
2026-04-27 22:20 59.69989 -140.79276 12514 ft 263 kts 111°
2026-04-27 22:20 59.69437 -140.75823 12507 ft 263 kts 111°
2026-04-27 22:21 59.68882 -140.72369 12512 ft 263 kts 111°
2026-04-27 22:21 59.68334 -140.68956 12511 ft 264 kts 111°
2026-04-27 22:21 59.67780 -140.65515 12508 ft 264 kts 111°
2026-04-27 22:21 59.67218 -140.62037 12506 ft 264 kts 111°
2026-04-27 22:22 59.66659 -140.58579 12509 ft 264 kts 111°
2026-04-27 22:22 59.66099 -140.55126 12516 ft 264 kts 111°
2026-04-27 22:22 59.65536 -140.51661 12513 ft 264 kts 111°
2026-04-27 22:22 59.64972 -140.48197 12512 ft 264 kts 111°
2026-04-27 22:23 59.64407 -140.44734 12511 ft 264 kts 111°
2026-04-27 22:23 59.63844 -140.41290 12510 ft 264 kts 111°
2026-04-27 22:23 59.63285 -140.37878 12507 ft 264 kts 110°
2026-04-27 22:23 59.62717 -140.34417 12510 ft 265 kts 110°
2026-04-27 22:24 59.62148 -140.30950 12512 ft 265 kts 110°
2026-04-27 22:24 59.61577 -140.27479 12512 ft 266 kts 110°
2026-04-27 22:24 59.61004 -140.24003 12512 ft 266 kts 110°
2026-04-27 22:24 59.60429 -140.20527 12512 ft 266 kts 111°
2026-04-27 22:25 59.59852 -140.17040 12516 ft 267 kts 111°
2026-04-27 22:25 59.59274 -140.13560 12517 ft 267 kts 111°
2026-04-27 22:25 59.58693 -140.10067 12516 ft 267 kts 111°
2026-04-27 22:25 59.58113 -140.06589 12515 ft 267 kts 111°
2026-04-27 22:26 59.57530 -140.03096 12514 ft 267 kts 111°
2026-04-27 22:26 59.56948 -139.99612 12501 ft 267 kts 111°
2026-04-27 22:26 59.56365 -139.96132 12509 ft 267 kts 111°
2026-04-27 22:26 59.55788 -139.92694 12514 ft 267 kts 111°
2026-04-27 22:27 59.55203 -139.89220 12515 ft 267 kts 111°
2026-04-27 22:27 59.54619 -139.85756 12515 ft 267 kts 111°
2026-04-27 22:27 59.54032 -139.82284 12517 ft 267 kts 111°
2026-04-27 22:27 59.53443 -139.78801 12515 ft 267 kts 111°
2026-04-27 22:28 59.52853 -139.75326 12507 ft 267 kts 110°
2026-04-27 22:28 59.52262 -139.71843 12510 ft 267 kts 110°
2026-04-27 22:28 59.51672 -139.68372 12519 ft 268 kts 110°
2026-04-27 22:28 59.50937 -139.65033 12519 ft 264 kts 127°
2026-04-27 22:29 59.49695 -139.62467 12523 ft 257 kts 147°
2026-04-27 22:29 59.48312 -139.60227 12524 ft 258 kts 145°
2026-04-27 22:29 59.46952 -139.57906 12525 ft 259 kts 144°
2026-04-27 22:29 59.45594 -139.55565 12524 ft 260 kts 144°
2026-04-27 22:30 59.44248 -139.53250 12519 ft 260 kts 144°
2026-04-27 22:30 59.42883 -139.50916 12520 ft 260 kts 144°
2026-04-27 22:30 59.41516 -139.48586 12522 ft 260 kts 144°
2026-04-27 22:30 59.40148 -139.46260 12517 ft 260 kts 144°
2026-04-27 22:31 59.38779 -139.43942 12518 ft 260 kts 144°
2026-04-27 22:31 59.37411 -139.41627 12518 ft 260 kts 144°
2026-04-27 22:31 59.36043 -139.39316 12516 ft 259 kts 144°
2026-04-27 22:31 59.34675 -139.37008 12516 ft 259 kts 144°
2026-04-27 22:32 59.33308 -139.34705 12516 ft 259 kts 144°
2026-04-27 22:32 59.31937 -139.32398 12507 ft 259 kts 142°
2026-04-27 22:32 59.30584 -139.30062 12516 ft 259 kts 143°
2026-04-27 22:32 59.29216 -139.27758 12514 ft 259 kts 144°
2026-04-27 22:33 59.27847 -139.25475 12513 ft 259 kts 144°
2026-04-27 22:33 59.26475 -139.23194 12525 ft 259 kts 144°
2026-04-27 22:33 59.25094 -139.20900 12510 ft 262 kts 144°
2026-04-27 22:33 59.23720 -139.18615 12490 ft 263 kts 144°
2026-04-27 22:34 59.22331 -139.16300 12474 ft 262 kts 144°
2026-04-27 22:34 59.20948 -139.13990 12468 ft 260 kts 144°
2026-04-27 22:34 59.19572 -139.11695 12470 ft 259 kts 144°
2026-04-27 22:34 59.18204 -139.09415 12470 ft 258 kts 144°
2026-04-27 22:35 59.16838 -139.07143 12476 ft 258 kts 144°
2026-04-27 22:35 59.15471 -139.04872 12476 ft 257 kts 144°
2026-04-27 22:35 59.14109 -139.02611 12477 ft 257 kts 144°
2026-04-27 22:35 59.12743 -139.00349 12478 ft 257 kts 144°
2026-04-27 22:36 59.11399 -138.98123 12476 ft 257 kts 144°
2026-04-27 22:36 59.10034 -138.95866 12478 ft 257 kts 144°
2026-04-27 22:36 59.08675 -138.93620 12474 ft 257 kts 142°
2026-04-27 22:36 59.07311 -138.91347 12484 ft 258 kts 143°
2026-04-27 22:37 59.05940 -138.89085 12473 ft 259 kts 143°
2026-04-27 22:37 59.04562 -138.86820 12475 ft 259 kts 143°
2026-04-27 22:37 59.03186 -138.84564 12478 ft 259 kts 143°
2026-04-27 22:37 59.01830 -138.82338 12479 ft 259 kts 143°
2026-04-27 22:38 59.00455 -138.80085 12480 ft 259 kts 143°
2026-04-27 22:38 58.99077 -138.77827 12477 ft 259 kts 143°
2026-04-27 22:38 58.97702 -138.75577 12480 ft 259 kts 143°
2026-04-27 22:38 58.96327 -138.73327 12481 ft 259 kts 143°
2026-04-27 22:39 58.94951 -138.71079 12481 ft 259 kts 143°
2026-04-27 22:39 58.93575 -138.68832 12481 ft 259 kts 143°
2026-04-27 22:39 58.92199 -138.66588 12482 ft 259 kts 143°
2026-04-27 22:39 58.90816 -138.64334 12480 ft 259 kts 143°
2026-04-27 22:40 58.89440 -138.62096 12480 ft 259 kts 143°
2026-04-27 22:40 58.88061 -138.59853 12481 ft 259 kts 143°
2026-04-27 22:40 58.86698 -138.57640 12481 ft 259 kts 143°
2026-04-27 22:40 58.85322 -138.55409 12490 ft 259 kts 143°
2026-04-27 22:41 58.83938 -138.53167 12480 ft 259 kts 143°
2026-04-27 22:41 58.82555 -138.50927 12479 ft 259 kts 143°
2026-04-27 22:41 58.81177 -138.48700 12477 ft 259 kts 143°
2026-04-27 22:41 58.79801 -138.46426 12466 ft 259 kts 141°
2026-04-27 22:42 58.78445 -138.44127 12473 ft 259 kts 143°
2026-04-27 22:42 58.77060 -138.41916 12469 ft 258 kts 144°
2026-04-27 22:42 58.75666 -138.39716 12474 ft 258 kts 144°
2026-04-27 22:42 58.74276 -138.37519 12477 ft 258 kts 144°
2026-04-27 22:43 58.72892 -138.35322 12478 ft 259 kts 144°
2026-04-27 22:43 58.71521 -138.33139 12479 ft 259 kts 144°
2026-04-27 22:43 58.70118 -138.30899 12472 ft 259 kts 144°
2026-04-27 22:43 58.68753 -138.28716 12476 ft 259 kts 144°
2026-04-27 22:44 58.67368 -138.26503 12477 ft 259 kts 144°
2026-04-27 22:44 58.65984 -138.24291 12479 ft 259 kts 144°
2026-04-27 22:44 58.64598 -138.22079 12480 ft 259 kts 144°
2026-04-27 22:44 58.63207 -138.19861 12478 ft 259 kts 144°
2026-04-27 22:45 58.61822 -138.17655 12478 ft 259 kts 144°
2026-04-27 22:45 58.60428 -138.15436 12477 ft 259 kts 144°
2026-04-27 22:45 58.59041 -138.13231 12477 ft 258 kts 144°
2026-04-27 22:45 58.57662 -138.11039 12404 ft 257 kts 144°
2026-04-27 22:46 58.56284 -138.08854 12289 ft 257 kts 144°
2026-04-27 22:46 58.54906 -138.06669 12180 ft 257 kts 144°
2026-04-27 22:46 58.53521 -138.04479 12073 ft 257 kts 144°
2026-04-27 22:46 58.52162 -138.02331 11968 ft 257 kts 144°
2026-04-27 22:47 58.50789 -138.00160 11861 ft 256 kts 144°
2026-04-27 22:47 58.49414 -137.97992 11754 ft 256 kts 144°
2026-04-27 22:47 58.48044 -137.95830 11650 ft 254 kts 144°
2026-04-27 22:47 58.46687 -137.93692 11543 ft 252 kts 144°
2026-04-27 22:48 58.45340 -137.91571 11429 ft 249 kts 144°
2026-04-27 22:48 58.44006 -137.89474 11310 ft 248 kts 144°
2026-04-27 22:48 58.42676 -137.87386 11173 ft 248 kts 144°
2026-04-27 22:48 58.41338 -137.85291 11014 ft 248 kts 144°
2026-04-27 22:49 58.40001 -137.83198 10858 ft 249 kts 144°
2026-04-27 22:49 58.38660 -137.81100 10700 ft 249 kts 142°
2026-04-27 22:49 58.37325 -137.78972 10547 ft 250 kts 143°
2026-04-27 22:49 58.35997 -137.76896 10411 ft 250 kts 143°
2026-04-27 22:50 58.34646 -137.74799 10258 ft 251 kts 143°
2026-04-27 22:50 58.33288 -137.72695 10114 ft 251 kts 143°
2026-04-27 22:50 58.31932 -137.70593 9958 ft 251 kts 143°
2026-04-27 22:50 58.30581 -137.68500 9800 ft 251 kts 143°
2026-04-27 22:51 58.29235 -137.66411 9640 ft 250 kts 143°
2026-04-27 22:51 58.27885 -137.64317 9480 ft 250 kts 143°
2026-04-27 22:51 58.26539 -137.62231 9327 ft 249 kts 143°
2026-04-27 22:51 58.25195 -137.60150 9175 ft 249 kts 143°
2026-04-27 22:52 58.23849 -137.58069 9025 ft 249 kts 143°
2026-04-27 22:52 58.22509 -137.55996 8876 ft 248 kts 143°
2026-04-27 22:52 58.21185 -137.53952 8730 ft 248 kts 143°
2026-04-27 22:52 58.19849 -137.51890 8586 ft 247 kts 143°
2026-04-27 22:53 58.18515 -137.49834 8440 ft 247 kts 143°
2026-04-27 22:53 58.17181 -137.47782 8297 ft 246 kts 143°
2026-04-27 22:53 58.15851 -137.45735 8153 ft 245 kts 143°
2026-04-27 22:53 58.14528 -137.43693 8010 ft 246 kts 143°
2026-04-27 22:54 58.13202 -137.41655 7862 ft 245 kts 143°
2026-04-27 22:54 58.11876 -137.39623 7723 ft 245 kts 143°
2026-04-27 22:54 58.10567 -137.37620 7584 ft 245 kts 143°
2026-04-27 22:54 58.09243 -137.35595 7443 ft 244 kts 143°
2026-04-27 22:55 58.07922 -137.33576 7307 ft 243 kts 143°
2026-04-27 22:55 58.06610 -137.31574 7172 ft 243 kts 143°
2026-04-27 22:55 58.05299 -137.29573 7036 ft 242 kts 143°
2026-04-27 22:55 58.03989 -137.27576 6901 ft 241 kts 143°
2026-04-27 22:56 58.02684 -137.25589 6766 ft 241 kts 143°
2026-04-27 22:56 58.01383 -137.23610 6636 ft 240 kts 143°
2026-04-27 22:56 58.00086 -137.21637 6496 ft 239 kts 143°
2026-04-27 22:56 57.99226 -137.20329 6400 ft 239 kts 143°
2026-04-27 22:57 57.97515 -137.17733 6201 ft 238 kts 143°
2026-04-27 22:57 57.96229 -137.15785 6058 ft 237 kts 143°
2026-04-27 22:57 57.95360 -137.14470 5996 ft 235 kts 143°
2026-04-27 22:57 57.94121 -137.12592 5982 ft 229 kts 143°
2026-04-27 22:58 57.92880 -137.10714 5978 ft 228 kts 143°
2026-04-27 22:58 57.91640 -137.08842 5982 ft 229 kts 143°
2026-04-27 22:58 57.90391 -137.06958 5978 ft 230 kts 143°
2026-04-27 22:58 57.89135 -137.05063 5979 ft 231 kts 143°
2026-04-27 22:59 57.87882 -137.03175 5977 ft 232 kts 143°
2026-04-27 22:59 57.86620 -137.01275 5975 ft 232 kts 143°
2026-04-27 22:59 57.85372 -136.99399 5974 ft 232 kts 143°
2026-04-27 22:59 57.84099 -136.97487 5975 ft 232 kts 143°
2026-04-27 23:00 57.81574 -136.93698 5979 ft 232 kts 143°
2026-04-27 23:00 57.80316 -136.91812 5979 ft 232 kts 143°
2026-04-27 23:00 57.79067 -136.89943 5978 ft 232 kts 143°
2026-04-27 23:01 57.77804 -136.88054 5984 ft 232 kts 143°
2026-04-27 23:01 57.76540 -136.86166 5982 ft 232 kts 143°
2026-04-27 23:01 57.75276 -136.84278 5980 ft 233 kts 143°
2026-04-27 23:01 57.74010 -136.82391 5981 ft 233 kts 143°
2026-04-27 23:02 57.72744 -136.80505 5984 ft 233 kts 143°
2026-04-27 23:02 57.71478 -136.78621 5983 ft 233 kts 143°
2026-04-27 23:02 57.70212 -136.76738 5983 ft 233 kts 143°
2026-04-27 23:02 57.68942 -136.74851 5989 ft 233 kts 143°
2026-04-27 23:03 57.67669 -136.72962 5986 ft 234 kts 143°
2026-04-27 23:03 57.66390 -136.71064 5982 ft 235 kts 143°
2026-04-27 23:03 57.65109 -136.69165 5981 ft 235 kts 143°
2026-04-27 23:03 57.63826 -136.67267 5986 ft 235 kts 143°
2026-04-27 23:04 57.62539 -136.65362 5987 ft 236 kts 143°
2026-04-27 23:04 57.61249 -136.63455 5986 ft 236 kts 143°
2026-04-27 23:04 57.59960 -136.61553 5986 ft 236 kts 143°